logo
Rechercher aéroport 
image banner adimage banner adimage banner ad
image banner ad

FABEUL - Beulah

Situé à , South Africa

ICAO - , IATA -

Données fournies par Airmate  

Information générale

Coordonnées: S33°54'15" E24°57'30"
Élévation : 32 feet MSL.
 
Voir autres Aéroports à Eastern Cape

Données opérationnelles

Special qualification required
Heure actuelle UTC:
Heure actuelle locale:
METAR: FAPE 290900Z 11003KT 060V160 CAVOK 26/09 Q1015 TEMPO 5000
TAF: TAF FAPE 290400Z 2906/3006 33006KT CAVOK TX29/2911Z TN17/3000Z BECMG 2911/2913 VRB03KT BECMG 2919/2921 35010KT PROB30 TEMPO 3003/3006 35015G30KT
Voir NOTAMs / SUP AIP / TFR affectant cet aéroport [VIEW]
Fréquences de communication: [VIEW]

Pistes:

Identifiant RWYQFULongueur (ft)Largeur (ft)SurfaceLDA (ft)
0688°164066GRASS
24268°164066GRASS

Coordonnées de l'aéroport

Adresse: South Africa

Vue satellite de FABEUL